GW2445 Weather Reports


time (UTC)temp
C
wind
direction
speed
KPH
gust
KPH
rain 1hr
cm
rain 24hr
cm
rain mn
cm
humidity
%
barometer
mb
20260503224303 13 266 4.8 12.9 0.00 0.00 0.00 50 1009.7
20260503223755 13 290 4.8 14.5 0.00 0.00 0.00 50 1009.7
20260503223243 13 169 4.8 17.7 0.00 0.00 0.00 50 1009.7
20260503222735 13 174 6.4 24.1 0.00 0.00 0.00 49 1009.8
20260503222224 13 298 6.4 24.1 0.00 0.00 0.00 50 1009.8
20260503221714 13 306 4.8 20.9 0.00 0.00 0.00 49 1009.9
20260503221209 13 207 6.4 20.9 0.00 0.00 0.00 50 1009.9
20260503220702 13 229 6.4 20.9 0.00 0.00 0.00 48 1009.8
20260503215638 13 235 6.4 24.1 0.00 0.00 0.00 50 1009.8
20260503215132 13 259 6.4 16.1 0.00 0.00 0.00 49 1009.9
20260503214624 13 225 6.4 16.1 0.00 0.00 0.00 49 1009.8
20260503214116 13 208 4.8 17.7 0.00 0.00 0.00 48 1009.8
20260503213609 13 227 4.8 24.1 0.00 0.00 0.00 49 1009.8
20260503213103 13 203 6.4 24.1 0.00 0.00 0.00 48 1009.8
20260503212812 13 306 6.4 22.5 0.00 0.00 0.00 49 1009.8
20260503212043 13 252 6.4 22.5 0.00 0.00 0.00 49 1009.8
20260503211756 13 294 8.0 29.0 0.00 0.00 0.00 48 1009.7
20260503210521 14 242 8.0 22.5 0.00 0.00 0.00 45 1009.9
20260503210019 15 294 8.0 22.5 0.00 0.00 0.00 43 1009.8
20260503205520 15 330 9.7 24.1 0.00 0.00 0.00 43 1009.7
20260503205021 15 167 9.7 24.1 0.00 0.00 0.00 40 1009.9
20260503204518 15 273 8.0 22.5 0.00 0.00 0.00 40 1010.0
20260503204246 15 207 9.7 27.4 0.00 0.00 0.00 43 1009.9
20260503203517 15 229 11.3 29.0 0.00 0.00 0.00 39 1009.9
20260503203010 15 258 11.3 33.8 0.00 0.00 0.00 40 1010.0
20260503202738 15 263 11.3 33.8 0.00 0.00 0.00 39 1010.0
20260503202009 15 249 9.7 25.7 0.00 0.00 0.00 39 1010.2
20260503200943 15 319 9.7 38.6 0.00 0.00 0.00 39 1010.4
20260503200444 15 350 12.9 38.6 0.00 0.00 0.00 39 1010.5
20260503195944 15 260 11.3 30.6 0.00 0.00 0.00 38 1010.5
20260503194943 15 306 8.0 32.2 0.00 0.00 0.00 39 1010.7
20260503194710 15 219 8.0 32.2 0.00 0.00 0.00 41 1010.8
20260503193943 15 265 8.0 43.5 0.00 0.00 0.00 46 1010.9
20260503193440 15 252 11.3 43.5 0.00 0.00 0.00 43 1010.9
20260503193158 15 198 11.3 30.6 0.00 0.00 0.00 41 1011.0
20260503192654 15 266 9.7 30.6 0.00 0.00 0.00 44 1011.0
20260503191929 15 271 9.7 22.5 0.00 0.00 0.00 44 1011.1
20260503191419 15 213 11.3 27.4 0.00 0.00 0.00 44 1011.1
20260503190909 15 280 9.7 27.4 0.00 0.00 0.00 45 1011.1
20260503190403 15 303 9.7 24.1 0.00 0.00 0.00 42 1011.2
20260503190125 15 273 8.0 24.1 0.00 0.00 0.00 45 1011.2
20260503185401 15 323 8.0 22.5 0.00 0.00 0.00 45 1011.3
20260503184855 15 232 8.0 24.1 0.00 0.00 0.00 47 1011.3
20260503184355 15 205 8.0 24.1 0.00 0.00 0.00 44 1011.3
20260503183854 14 201 11.3 25.7 0.00 0.00 0.00 43 1011.6
20260503183353 14 273 12.9 30.6 0.00 0.00 0.00 45 1011.3
20260503182855 14 314 11.3 30.6 0.00 0.00 0.00 44 1011.5
20260503182354 14 272 9.7 29.0 0.00 0.00 0.00 44 1011.4
20260503182113 14 204 8.0 29.0 0.00 0.00 0.00 45 1011.7
20260503181353 14 229 8.0 24.1 0.00 0.00 0.00 44 1011.6
20260503180347 14 211 9.7 29.0 0.00 0.00 0.00 43 1011.8
20260503175332 15 226 9.7 29.0 0.00 0.00 0.00 42 1011.8
20260503175050 15 299 8.0 29.0 0.00 0.00 0.00 42 1011.8
20260503174548 15 151 8.0 33.8 0.00 0.00 0.00 47 1012.0
20260503173821 15 277 6.4 33.8 0.00 0.00 0.00 49 1011.9
20260503173323 15 182 4.8 16.1 0.00 0.00 0.00 47 1011.9
20260503172824 14 304 4.8 20.9 0.00 0.00 0.00 48 1012.1
20260503172310 13 289 6.4 20.9 0.00 0.00 0.00 51 1012.0
20260503171811 13 89 6.4 17.7 0.00 0.00 0.00 48 1012.1
20260503171525 13 202 6.4 17.7 0.00 0.00 0.00 48 1012.1
20260503170757 13 267 6.4 14.5 0.00 0.00 0.00 43 1012.2
20260503170522 13 290 6.4 22.5 0.00 0.00 0.00 45 1012.2
20260503150655 11 240 4.8 14.5 0.00 0.00 0.00 44 1013.2
20260503150142 11 293 4.8 16.1 0.00 0.00 0.00 49 1013.2
20260503140115 10 213 1.6 14.5 0.00 0.00 0.00 54 1013.4
20260503131041 7 192 3.2 14.5 0.00 0.00 0.00 68 1013.6
20260503130539 7 274 3.2 17.7 0.00 0.00 0.00 70 1013.5
20260503110827 1 205 0.0 6.4 0.00 0.00 0.00 85 1012.9
20260503110324 1 221 0.0 6.4 0.00 0.00 0.00 86 1012.8
20260503100200 1 158 0.0 0.0 0.00 0.00 0.00 85 1012.5
20260503090433 0 157 0.0 0.0 0.00 0.00 0.00 85 1012.6
20260503081354 0 157 0.0 3.2 0.00 0.00 0.00 85 1012.7
20260503080632 0 186 0.0 0.0 0.00 0.00 0.00 85 1012.8
20260503080326 0 186 0.0 1.6 0.00 0.00 0.00 85 1012.7
20260503072456 0 201 0.0 0.0 0.00 0.00 0.00 86 1012.8
20260503071434 0 201 0.0 1.6 0.00 0.00 0.00 86 1012.7
20260503070935 0 201 0.0 0.0 0.00 0.00 0.00 86 1012.6
20260503070420 0 201 0.0 0.0 0.00 0.00 0.00 86 1012.7
20260503060200 1 201 0.0 0.0 0.00 0.00 0.00 86 1013.3
20260503054631 1 201 0.0 0.0 0.00 0.00 0.00 86 1013.3
20260503054112 1 201 0.0 1.6 0.00 0.00 0.00 86 1013.3
20260503053612 1 201 0.0 3.2 0.00 0.00 0.00 86 1013.3
20260503053104 1 173 0.0 1.6 0.00 0.00 0.00 86 1013.4
20260503052540 1 173 0.0 3.2 0.00 0.00 0.00 86 1013.4
20260503052031 1 187 0.0 3.2 0.00 0.00 0.00 86 1013.4
20260503051530 1 186 0.0 0.0 0.00 0.00 0.00 86 1013.4
20260503051025 1 186 0.0 0.0 0.00 0.00 0.00 86 1013.4
20260503050525 1 186 0.0 0.0 0.00 0.00 0.00 85 1013.4
20260503050018 1 186 0.0 0.0 0.00 0.00 0.00 85 1013.5
20260503045728 1 186 0.0 0.0 0.00 0.00 0.00 85 1013.5
20260503044938 1 186 0.0 3.2 0.00 0.00 0.00 85 1013.5
20260503044430 1 186 0.0 3.2 0.00 0.00 0.00 85 1013.6
20260503043919 1 186 0.0 0.0 0.00 0.00 0.00 85 1013.6
20260503043333 1 186 0.0 0.0 0.00 0.00 0.00 84 1013.5
20260503042825 1 186 0.0 0.0 0.00 0.00 0.00 84 1013.5
20260503042320 1 186 0.0 3.2 0.00 0.00 0.00 84 1013.6
20260503041817 1 186 0.0 3.2 0.00 0.00 0.00 84 1013.6
20260503041308 1 186 0.0 0.0 0.00 0.00 0.00 83 1013.7
20260503040757 1 188 0.0 0.0 0.00 0.00 0.00 83 1013.7
20260503040240 1 188 0.0 0.0 0.00 0.00 0.00 83 1013.7
20260503035739 1 188 0.0 1.6 0.00 0.00 0.00 82 1013.6
20260503035223 1 187 0.0 1.6 0.00 0.00 0.00 82 1013.7
20260503034705 1 188 0.0 0.0 0.00 0.00 0.00 82 1013.6
20260503034346 1 188 0.0 0.0 0.00 0.00 0.00 82 1013.7
20260503033621 1 188 0.0 0.0 0.00 0.00 0.00 81 1013.7
20260503033103 2 188 0.0 0.0 0.00 0.00 0.00 81 1013.7
20260503032606 2 188 0.0 0.0 0.00 0.00 0.00 81 1013.8
20260503032028 2 188 0.0 0.0 0.00 0.00 0.00 81 1013.8
20260503031524 2 188 0.0 0.0 0.00 0.00 0.00 80 1013.8
20260503031004 2 188 0.0 0.0 0.00 0.00 0.00 80 1013.8
20260503030437 2 188 0.0 0.0 0.00 0.00 0.00 80 1013.9
20260503025932 2 188 0.0 0.0 0.00 0.00 0.00 80 1013.9
20260503025428 2 188 0.0 0.0 0.00 0.00 0.00 79 1013.8
20260503024904 2 188 0.0 1.6 0.00 0.00 0.00 79 1013.9
20260503024339 2 188 0.0 1.6 0.00 0.00 0.00 78 1014.0
20260503024103 2 259 0.0 0.0 0.00 0.00 0.00 78 1014.0
20260503023327 2 259 0.0 0.0 0.00 0.00 0.00 78 1014.1
20260503022814 3 259 0.0 0.0 0.00 0.00 0.00 77 1014.1
20260503022248 3 259 0.0 0.0 0.00 0.00 0.00 76 1014.1
20260503021731 3 259 0.0 0.0 0.00 0.00 0.00 76 1014.1
20260503021225 3 259 0.0 0.0 0.00 0.00 0.00 75 1014.1
20260503020724 3 259 0.0 1.6 0.00 0.00 0.00 74 1014.0
20260503020220 3 259 0.0 1.6 0.00 0.00 0.00 73 1014.2
20260503015721 3 259 0.0 0.0 0.00 0.00 0.00 72 1014.2
20260503015208 3 259 0.0 0.0 0.00 0.00 0.00 72 1014.1
20260503014655 4 259 0.0 0.0 0.00 0.00 0.00 71 1014.1
20260503013630 4 259 0.0 1.6 0.00 0.00 0.00 70 1014.1
20260503013129 4 259 0.0 6.4 0.00 0.00 0.00 69 1014.2
20260503012834 4 261 1.6 6.4 0.00 0.00 0.00 69 1014.1
20260503012055 5 321 1.6 8.0 0.00 0.00 0.00 69 1014.1
20260503011555 5 244 1.6 8.0 0.00 0.00 0.00 69 1014.1
20260503011037 5 193 0.0 8.0 0.00 0.00 0.00 69 1014.1
20260503010529 5 180 0.0 8.0 0.00 0.00 0.00 69 1014.0
20260503010013 5 250 1.6 8.0 0.00 0.00 0.00 68 1014.1
20260503005733 5 184 1.6 9.7 0.00 0.00 0.00 68 1014.1
20260503004958 5 290 1.6 9.7 0.00 0.00 0.00 68 1014.1
20260503004448 5 273 1.6 11.3 0.00 0.00 0.00 67 1014.1
20260503003937 5 231 1.6 11.3 0.00 0.00 0.00 67 1014.1
20260503003433 5 190 1.6 9.7 0.00 0.00 0.00 68 1014.1
20260503002927 5 259 1.6 9.7 0.00 0.00 0.00 69 1014.0
20260503002416 5 255 1.6 8.0 0.00 0.00 0.00 69 1013.9
20260503002143 5 255 1.6 8.0 0.00 0.00 0.00 68 1013.9
20260503001408 5 304 3.2 8.0 0.00 0.00 0.00 68 1014.0
20260503000851 5 223 1.6 8.0 0.00 0.00 0.00 68 1014.0
20260503000339 5 308 1.6 6.4 0.00 0.00 0.00 68 1013.9
20260502235829 5 288 1.6 6.4 0.00 0.00 0.00 68 1013.9
20260502235330 5 229 3.2 14.5 0.00 0.00 0.00 67 1013.9
20260502234831 5 182 1.6 14.5 0.00 0.00 0.00 67 1014.0
20260502233816 5 284 1.6 9.7 0.00 0.00 0.00 66 1014.0
20260502233259 5 299 1.6 6.4 0.00 0.00 0.00 64 1014.1
20260502232749 5 306 1.6 8.0 0.00 0.00 0.00 65 1014.0
20260502232240 5 323 1.6 8.0 0.00 0.00 0.00 67 1014.1
20260502231731 5 264 1.6 6.4 0.00 0.00 0.00 66 1014.1
20260502231223 5 327 1.6 9.7 0.00 0.00 0.00 67 1014.0
20260502230718 5 165 1.6 9.7 0.00 0.00 0.00 66 1014.0
20260502230207 5 200 1.6 8.0 0.00 0.00 0.00 68 1014.1
20260502225658 5 290 3.2 16.1 0.00 0.00 0.00 66 1014.1